Location: Bremen
(53.0793°N, 8.8017°E)
Time: 11:07:38
(UTC+02:00)

Transit 2A Rocket - Pass Details

Date: 27 June 2024
Orbit: 582 x 910 km, 66.7° (Epoch: 19 July)

Event Time Altitude Azimuth Distance (km) Brightness Sun altitude
Rises 01:18:54 0° 301° (WNW) 3,381 8.8 -13.6°
Reaches altitude 10° 01:21:54 10° 317° (NW) 2,497 8.4 -13.6°
Maximum altitude 01:26:22 22° 7° (N) 1,839 8.0 -13.6°
Drops below altitude 10° 01:31:00 10° 57° (ENE) 2,593 8.2 -13.6°
Sets 01:34:10 0° 72° (ENE) 3,546 8.7 -13.6°
